Date,TemperatureHighF,TemperatureAvgF,TemperatureLowF,DewpointHighF,DewpointAvgF,DewpointLowF,HumidityHigh,HumidityAvg,HumidityLow,PressureMaxIn,PressureMinIn,WindSpeedMaxMPH,WindSpeedAvgMPH,GustSpeedMaxMPH,PrecipitationSumIn
2014-1-1,0.0,0.0,0.0,0.0,0.0,0.0,0,0,100,30.44,30.36,0,0,0,0.00
2014-1-2,0.0,0.0,0.0,0.0,0.0,0.0,0,0,100,30.45,30.10,0,0,0,0.00
2014-1-3,0.0,0.0,0.0,0.0,0.0,0.0,0,0,100,30.09,29.40,0,0,0,0.00
2014-1-4,0.0,0.0,0.0,0.0,0.0,0.0,0,0,100,30.28,29.66,0,0,0,0.00
2014-1-5,0.0,0.0,0.0,0.0,0.0,0.0,0,0,100,30.42,30.27,0,0,0,0.00
2014-1-6,0.0,0.0,0.0,0.0,0.0,0.0,0,0,100,30.37,30.10,0,0,0,0.00
2014-1-7,0.0,0.0,0.0,0.0,0.0,0.0,0,0,100,30.26,30.08,0,0,0,0.00
2014-1-8,0.0,0.0,0.0,0.0,0.0,0.0,0,0,100,30.38,30.14,0,0,0,0.00
2014-1-9,0.0,0.0,0.0,0.0,0.0,0.0,0,0,100,30.14,29.70,0,0,0,0.00
2014-1-10,0.0,0.0,0.0,0.0,0.0,0.0,0,0,100,29.70,29.55,0,0,0,0.00
2014-1-11,0.0,0.0,0.0,0.0,0.0,0.0,0,0,100,29.72,29.48,0,0,0,0.00
2014-1-12,0.0,0.0,0.0,0.0,0.0,0.0,0,0,100,29.66,29.38,0,0,0,0.00
2014-1-13,0.0,0.0,0.0,0.0,0.0,0.0,0,0,100,29.73,29.60,0,0,0,0.00
2014-1-14,0.0,0.0,0.0,0.0,0.0,0.0,0,0,100,30.18,29.67,0,0,0,0.00
2014-1-15,0.0,0.0,0.0,0.0,0.0,0.0,0,0,100,30.15,29.45,0,0,0,0.00
2014-1-16,0.0,0.0,0.0,0.0,0.0,0.0,0,0,100,30.12,29.45,0,0,0,0.00
2014-1-17,0.0,0.0,0.0,0.0,0.0,0.0,0,0,100,30.12,29.55,0,0,0,0.00
2014-1-18,0.0,0.0,0.0,0.0,0.0,0.0,0,0,100,29.99,29.52,0,0,0,0.00
2014-1-19,0.0,0.0,0.0,0.0,0.0,0.0,0,0,100,29.84,29.58,0,0,0,0.00
2014-1-20,0.0,0.0,0.0,0.0,0.0,0.0,0,0,100,30.48,29.84,0,0,0,0.00
2014-1-21,0.0,0.0,0.0,0.0,0.0,0.0,0,0,100,30.45,30.01,0,0,0,0.00
2014-1-22,0.0,0.0,0.0,0.0,0.0,0.0,0,0,100,30.56,30.03,0,0,0,0.00
2014-1-23,0.0,0.0,0.0,0.0,0.0,0.0,0,0,100,30.62,29.86,0,0,0,0.00
2014-1-24,0.0,0.0,0.0,0.0,0.0,0.0,0,0,100,29.88,29.60,0,0,0,0.00
2014-1-25,0.0,0.0,0.0,0.0,0.0,0.0,0,0,100,30.04,29.54,0,0,0,0.00
2014-1-26,0.0,0.0,0.0,0.0,0.0,0.0,0,0,100,30.24,29.53,0,0,0,0.00
2014-1-27,0.0,0.0,0.0,0.0,0.0,0.0,0,0,100,30.40,30.24,0,0,0,0.00
2014-1-28,0.0,0.0,0.0,0.0,0.0,0.0,0,0,100,30.32,30.00,0,0,0,0.00
2014-1-29,0.0,0.0,0.0,0.0,0.0,0.0,0,0,100,30.00,29.60,0,0,0,0.00
2014-1-30,0.0,0.0,0.0,0.0,0.0,0.0,0,0,100,30.03,29.67,0,0,0,0.00
2014-1-31,0.0,0.0,0.0,0.0,0.0,0.0,0,0,100,30.05,29.86,0,0,0,0.00